Location: Sternwarte ZA, Rosenfeld-Brittheim
(48.2889°N, 8.6789°E)
Time: 08:45:55
(UTC+02:00)

ISS - Pass Details

Date: 25 May 2021
Orbit: 417 x 422 km, 51.6° (Epoch: 18 June)

Event Time Altitude Azimuth Distance (km) Brightness Sun altitude
Rises 00:35:16 0° 290° (WNW) 2,370 0.5 -20.0°
Reaches altitude 10° 00:37:28 10° 282° (WNW) 1,504 -0.7 -20.0°
Enters shadow 00:39:17 25° 259° (W) 897 -2.1 -20.1°
